Weather observations for the past three days for
Tri-Cities Airport
Imperial (Metric)
Date Time (pdt) Wind (mph) Vis. (mi.) Weather Sky Cond. Temperature (ºF) Relative Humidity Wind Chill (°F) Heat Index (°F) Pressure Precipitation (in)
Air Dwpt 6 hour altimeter (in) sea level (mb) 1 hr 3 hr 6 hr
Max. Min.
22 08:53 S 14 G 22 10.00 Fair CLR 77 60.1 56% 79 29.88 1011.5
22 07:53 SW 9 10.00 Fair CLR 73.9 60.1 62% 29.89 1011.8
22 06:53 SW 13 10.00 Fair CLR 73.9 60.1 62% 29.88 1011.3
22 05:53 SW 14 10.00 Fair CLR 73 60.1 64% 29.87 1011.1
22 04:53 SW 13 10.00 Fair CLR 73.9 60.1 90 73 62% 29.85 1010.3
22 03:53 S 14 10.00 Fair CLR 75 60.1 60% 77 29.83 1009.8
22 02:53 S 15 10.00 Fair CLR 77 61 58% 79 29.84 1009.9
22 01:53 SW 14 10.00 Fair CLR 78.1 61 56% 80 29.82 1009.4
22 00:53 S 15 G 20 10.00 Fair CLR 84 60.1 44% 84 29.82 1009.2
21 23:53 S 18 10.00 Fair CLR 86 60.1 42% 86 29.82 1009.2
21 22:53 SE 6 10.00 Fair CLR 90 54 98.1 82.9 29% 88 29.83 1009.5
21 21:53 NW 3 10.00 Fair CLR 82.9 59 44% 83 29.82 1009.3
21 20:53 NW 3 10.00 Fair CLR 87.1 55 34% 85 29.8 1008.8
21 19:53 SW 8 10.00 Fair CLR 91.9 54 28% 90 29.8 1008.7
21 18:53 SE 5 10.00 Fair CLR 93.9 57 29% 93 29.77 1007.7
21 17:53 SE 10 10.00 Fair CLR 98.1 55.9 24% 97 29.79 1008.3
21 16:53 SW 12 10.00 Fair CLR 96.1 55.9 105.1 88 26% 94 29.83 1009.7
21 15:53 W 13 10.00 Fair CLR 95 57 28% 94 29.84 1010.0
21 14:53 SW 8 10.00 Fair CLR 102.9 55 20% 102 29.84 1009.9
21 13:53 NW 5 10.00 Fair CLR 100.9 57 23% 100 29.83 1009.8
21 12:53 NW 5 10.00 Fair CLR 96.1 59 29% 96 29.86 1010.8
21 11:53 N 7 10.00 Fair CLR 89.1 63 42% 90 29.89 1011.6
21 10:53 NW 7 10.00 Fair CLR 88 60.1 88 61 39% 88 29.9 1012.0
21 09:53 NW 6 10.00 Fair CLR 82.9 59 44% 83 29.91 1012.4
21 08:53 W 5 10.00 Fair CLR 78.1 51.1 39% 79 29.91 1012.6
21 07:53 N 3 10.00 Fair CLR 73 59 62% 29.92 1012.7
21 06:53 Calm 10.00 Fair CLR 69.1 51.1 53% 29.92 1012.6
21 05:53 Calm 10.00 Fair CLR 64 55.9 75% 29.92 1012.8
21 04:53 NW 5 10.00 Fair CLR 61 57 75.9 61 87% 29.91 1012.3
21 03:53 Calm 10.00 Fair CLR 64.9 57.9 78% 29.9 1012.2
21 02:53 NW 6 10.00 Fair CLR 64 57.9 81% 29.9 1012.0
21 01:53 NW 6 10.00 Fair CLR 66 57.9 75% 29.9 1012.1
21 00:53 NW 3 10.00 Fair CLR 66.9 59 76% 29.91 1012.3
20 23:53 N 5 10.00 Fair CLR 68 61 78% 29.91 1012.4
20 22:53 N 5 10.00 Fair CLR 73 60.1 99 72 64% 29.91 1012.4
20 21:53 NW 5 10.00 Fair CLR 79 60.1 52% 80 29.91 1012.3
20 20:53 NW 7 10.00 Fair CLR 78.1 64 62% 80 29.9 1012.1
20 19:53 N 7 10.00 Fair CLR 88 63 43% 89 29.9 1012.1
20 18:53 N 9 10.00 Fair CLR 93 63 37% 94 29.91 1012.5
20 17:53 NW 10 10.00 Fair CLR 96.1 63 34% 98 29.92 1013.0
20 16:53 NW 10 10.00 Fair CLR 98.1 64 100 89.1 33% 101 29.94 1013.5
20 15:53 NW 10 10.00 Fair CLR 100 60.1 27% 101 29.97 1014.4
20 14:53 NW 9 10.00 Fair CLR 99 61 29% 100 29.99 1015.1
20 13:53 NW 5 10.00 Fair CLR 96.1 61 31% 97 30.01 1016.0
20 12:53 NE 3 10.00 Fair CLR 93.9 57 29% 93 30.04 1016.8
20 11:53 N 5 10.00 Fair CLR 91.9 57.9 32% 91 30.06 1017.6
20 10:53 N 3 10.00 Fair CLR 89.1 55 89.1 57.9 31% 87 30.08 1018.0
20 09:53 Calm 10.00 Fair CLR 84.9 54 35% 83 30.09 1018.3
20 08:53 N 3 10.00 Fair CLR 79 57.9 49% 80 30.1 1018.8
20 07:53 E 3 10.00 Fair CLR 73.9 55.9 54% 30.09 1018.6
20 06:53 N 5 10.00 Fair CLR 64.9 59 81% 30.08 1018.1
20 05:53 N 6 10.00 Fair CLR 57.9 57 97% 30.08 1018.2
20 04:53 N 3 10.00 Fair CLR 61 57.9 77 61 90% 30.06 1017.7
20 03:53 N 3 10.00 Fair CLR 63 57 81% 30.05 1017.1
20 02:53 Calm 10.00 Fair CLR 66 57 73% 30.04 1016.8
20 01:53 Calm 10.00 Fair CLR 66 57 73% 30.03 1016.6
20 00:53 Calm 10.00 Fair CLR 75 55 50% 78 30.03 1016.4
19 23:53 N 5 10.00 Fair CLR 66.9 59 76% 30.01 1015.7
19 22:53 E 5 10.00 Fair CLR 73.9 55.9 102 73 54% 29.99 1015.2
19 21:53 S 6 10.00 Fair CLR 90 44.1 20% 86 29.98 1014.7
19 20:53 S 7 10.00 Fair CLR 93 46 20% 89 29.97 1014.5
19 19:53 S 8 10.00 Fair CLR 97 48 19% 93 29.97 1014.3
19 18:53 S 8 10.00 Fair CLR 100 50 18% 97 29.96 1014.1
19 17:53 SW 7 10.00 Fair CLR 102 51.1 18% 99 29.96 1014.1
19 16:53 Calm 10.00 Fair CLR 100.9 51.1 102.9 90 19% 98 29.98 1014.6
19 15:53 S 3 10.00 Fair CLR 100.9 51.1 19% 98 30 1015.2
19 14:53 W 7 10.00 Fair CLR 100 48.9 18% 97 30.01 1015.8
19 13:53 S 6 10.00 Fair CLR 96.1 50 21% 93 30.03 1016.6
19 12:53 SW 7 G 17 10.00 Fair CLR 95 52 23% 92 30.05 1017.0
19 11:53 Calm 10.00 Fair CLR 91 51.1 26% 88 30.06 1017.4
19 10:53 W 6 10.00 Fair CLR 90 52 90 69.1 27% 87 30.06 1017.7
19 09:53 Vrbl 5 10.00 Fair CLR 87.1 52 30% 85 30.07 1017.6
Date Time (pdt) Wind (mph) Vis. (mi.) Weather Sky Cond. Air Dwpt Max. Min. Relative Humidity Wind Chill (°F) Heat Index (°F) altimeter (in) sea level (mb) 1 hr 3 hr 6 hr
6 hour
Temperature (ºF) Pressure Precipitation (in)